This is the latest recevied weather packets stored in our database for station/object KB4KY. If no packets are shown the sender has not sent any weather packets the latest 10 day(s).
| Time | Temp. | Humidity | Pressure | Rain* | Wind** | Luminosity | Snow |
|---|---|---|---|---|---|---|---|
| 1777949496 | 20° C | 57% | 1006.8 hPa | 0 mm | - | - | - |
| 1777949199 | 20° C | 57% | 1006.7 hPa | 0 mm | - | - | - |
| 1777948896 | 20° C | 57% | 1006.6 hPa | 0 mm | - | - | - |
| 1777948597 | 20° C | 56% | 1006.6 hPa | 0 mm | - | - | - |
| 1777948296 | 20° C | 55% | 1006.5 hPa | 0 mm | - | - | - |
| 1777947995 | 20.56° C | 55% | 1006.5 hPa | 0 mm | - | - | - |
| 1777947704 | 20.56° C | 55% | 1006.3 hPa | 0 mm | - | - | - |
| 1777947402 | 20.56° C | 54% | 1006.2 hPa | 0 mm | - | - | - |
| 1777947098 | 20.56° C | 54% | 1006.1 hPa | 0 mm | - | - | - |
| 1777946796 | 20.56° C | 54% | 1005.9 hPa | 0 mm | - | - | - |
| 1777946496 | 20.56° C | 53% | 1005.9 hPa | 0 mm | - | - | - |
| 1777946195 | 21.11° C | 53% | 1005.8 hPa | 0 mm | - | - | - |
| 1777945898 | 21.11° C | 53% | 1005.7 hPa | 0 mm | - | - | - |
| 1777945595 | 21.11° C | 52% | 1005.7 hPa | 0 mm | - | - | - |
| 1777945296 | 21.67° C | 51% | 1005.6 hPa | 0 mm | - | - | - |
| 1777945265 | 21.67° C | 51% | 1005.6 hPa | 0 mm | - | - | - |
| 1777944993 | 21.67° C | 52% | 1005.6 hPa | 0 mm | - | - | - |
| 1777944690 | 21.67° C | 51% | 1005.6 hPa | 0 mm | - | - | - |
| 1777944396 | 21.67° C | 51% | 1005.6 hPa | 0 mm | - | - | - |
| 1777944093 | 21.67° C | 50% | 1005.5 hPa | 0 mm | - | - | - |
| 1777943792 | 21.67° C | 52% | 1005.2 hPa | 0 mm | - | - | - |
| 1777943490 | 21.67° C | 52% | 1005.3 hPa | 0 mm | - | - | - |
| 1777943192 | 22.22° C | 52% | 1005.3 hPa | 0 mm | - | - | - |
| 1777942892 | 21.67° C | 53% | 1005.3 hPa | 0 mm | - | - | - |
| 1777942591 | 22.22° C | 53% | 1005.3 hPa | 0 mm | - | - | - |
* Rain latest hour (hover to see other rain measurements)
** Current wind speed in m/s (hover to see current wind gust speed)